| time (UTC) | temp F | wind direction | speed knots | gust knots | rain 1hr in | rain 24hr in | rain mn in | humidity % | barometer mb |
| 20260502210841 | 78 | 10 | 5.2 | 7.0 | 0.00 | 0.00 | 0.00 | 38 | 1034.0 |
| 20260502210338 | 79 | 341 | 3.5 | 5.2 | 0.00 | 0.00 | 0.00 | 39 | 1033.9 |
| 20260502205835 | 79 | 73 | 0.9 | 7.8 | 0.00 | 0.00 | 0.00 | 41 | 1033.9 |
| 20260502205331 | 78 | 305 | 5.2 | 7.8 | 0.00 | 0.00 | 0.00 | 42 | 1034.1 |
| 20260502204828 | 79 | 118 | 0.9 | 3.5 | 0.00 | 0.00 | 0.00 | 40 | 1034.0 |
| 20260502204326 | 78 | 139 | 0.9 | 3.5 | 0.00 | 0.00 | 0.00 | 43 | 1034.0 |
| 20260502203823 | 78 | 310 | 2.6 | 6.1 | 0.00 | 0.00 | 0.00 | 40 | 1034.1 |
| 20260502203320 | 78 | 17 | 2.6 | 3.5 | 0.00 | 0.00 | 0.00 | 40 | 1034.0 |
| 20260502202815 | 78 | 283 | 3.5 | 7.0 | 0.00 | 0.00 | 0.00 | 41 | 1034.1 |
| 20260502202313 | 79 | 90 | 3.5 | 9.6 | 0.00 | 0.00 | 0.00 | 40 | 1034.1 |
| 20260502201811 | 78 | 245 | 2.6 | 6.1 | 0.00 | 0.00 | 0.00 | 39 | 1034.2 |
| 20260502201306 | 78 | 59 | 1.7 | 8.7 | 0.00 | 0.00 | 0.00 | 41 | 1034.0 |
| 20260502200803 | 79 | 26 | 0.9 | 3.5 | 0.00 | 0.00 | 0.00 | 38 | 1034.0 |
| 20260502200259 | 79 | 262 | 2.6 | 5.2 | 0.00 | 0.00 | 0.00 | 39 | 1034.0 |
| 20260502195757 | 78 | 161 | 0.9 | 6.1 | 0.00 | 0.00 | 0.00 | 36 | 1034.2 |
| 20260502195254 | 78 | 27 | 2.6 | 5.2 | 0.00 | 0.00 | 0.00 | 37 | 1034.3 |
| 20260502194750 | 77 | 252 | 0.9 | 3.5 | 0.00 | 0.00 | 0.00 | 41 | 1034.2 |
| 20260502194247 | 78 | 325 | 6.1 | 11.3 | 0.00 | 0.00 | 0.00 | 38 | 1034.4 |
| 20260502193743 | 77 | 326 | 4.3 | 7.0 | 0.00 | 0.00 | 0.00 | 38 | 1034.3 |
| 20260502193241 | 77 | 8 | 3.5 | 6.1 | 0.00 | 0.00 | 0.00 | 39 | 1034.4 |
| 20260502192741 | 77 | 3 | 8.7 | 11.3 | 0.00 | 0.00 | 0.00 | 40 | 1034.1 |
| 20260502192238 | 76 | 36 | 2.6 | 5.2 | 0.00 | 0.00 | 0.00 | 43 | 1034.3 |
| 20260502191735 | 76 | 18 | 3.5 | 7.8 | 0.00 | 0.00 | 0.00 | 40 | 1034.6 |
| 20260502191233 | 76 | 326 | 7.8 | 11.3 | 0.00 | 0.00 | 0.00 | 40 | 1034.6 |
| 20260502190730 | 75 | 28 | 1.7 | 9.6 | 0.00 | 0.00 | 0.00 | 41 | 1034.6 |
| 20260502190227 | 75 | 33 | 3.5 | 8.7 | 0.00 | 0.00 | 0.00 | 39 | 1034.6 |
| 20260502185727 | 76 | 17 | 3.5 | 8.7 | 0.00 | 0.00 | 0.00 | 41 | 1034.7 |
| 20260502185224 | 75 | 21 | 0.0 | 7.0 | 0.00 | 0.00 | 0.00 | 42 | 1034.6 |
| 20260502184720 | 74 | 359 | 5.2 | 11.3 | 0.00 | 0.00 | 0.00 | 39 | 1034.8 |
| 20260502184216 | 74 | 339 | 2.6 | 8.7 | 0.00 | 0.00 | 0.00 | 40 | 1034.9 |
| 20260502183713 | 74 | 3 | 7.8 | 9.6 | 0.00 | 0.00 | 0.00 | 40 | 1035.0 |
| 20260502183209 | 74 | 6 | 2.6 | 11.3 | 0.00 | 0.00 | 0.00 | 42 | 1034.7 |
| 20260502182704 | 73 | 35 | 3.5 | 7.8 | 0.00 | 0.00 | 0.00 | 41 | 1034.8 |
| 20260502182200 | 73 | 335 | 7.0 | 9.6 | 0.00 | 0.00 | 0.00 | 41 | 1035.1 |
| 20260502181657 | 73 | 7 | 5.2 | 6.1 | 0.00 | 0.00 | 0.00 | 42 | 1035.1 |
| 20260502181156 | 73 | 329 | 1.7 | 6.1 | 0.00 | 0.00 | 0.00 | 43 | 1035.0 |
| 20260502180653 | 72 | 236 | 0.9 | 3.5 | 0.00 | 0.00 | 0.00 | 46 | 1034.9 |
| 20260502180150 | 72 | 13 | 4.3 | 6.1 | 0.00 | 0.00 | 0.00 | 46 | 1034.9 |
| 20260502170114 | 66 | 48 | 0.0 | 1.7 | 0.00 | 0.00 | 0.00 | 64 | 1035.7 |
| 20260502164101 | 63 | 57 | 0.9 | 1.7 | 0.00 | 0.00 | 0.00 | 70 | 1036.0 |
| 20260502163556 | 62 | 56 | 0.0 | 2.6 | 0.00 | 0.00 | 0.00 | 70 | 1036.1 |
| 20260502163054 | 62 | 78 | 0.9 | 1.7 | 0.00 | 0.00 | 0.00 | 71 | 1036.2 |
| 20260502162550 | 62 | 73 | 0.0 | 0.0 | 0.00 | 0.00 | 0.00 | 73 | 1036.2 |
| 20260502162048 | 62 | 69 | 0.9 | 0.9 | 0.00 | 0.00 | 0.00 | 76 | 1036.3 |
| 20260502161544 | 61 | 64 | 1.7 | 1.7 | 0.00 | 0.00 | 0.00 | 76 | 1036.2 |
| 20260502161042 | 60 | 62 | 0.0 | 0.0 | 0.00 | 0.00 | 0.00 | 80 | 1036.5 |
| 20260502160540 | 59 | 62 | 0.0 | 0.0 | 0.00 | 0.00 | 0.00 | 85 | 1036.4 |
| 20260502151953 | 55 | 73 | 0.0 | 0.0 | 0.00 | 0.00 | 0.00 | 91 | 1036.5 |
| 20260502151449 | 53 | 112 | 0.9 | 0.9 | 0.00 | 0.00 | 0.00 | 93 | 1036.5 |
| 20260502150947 | 51 | 90 | 0.0 | 0.0 | 0.00 | 0.00 | 0.00 | 98 | 1036.5 |
| 20260502150444 | 50 | 90 | 0.0 | 0.0 | 0.00 | 0.00 | 0.00 | 98 | 1036.3 |
| 20260502130329 | 46 | 61 | 0.0 | 0.0 | 0.00 | 0.00 | 0.00 | 99 | 1035.7 |
| 20260502123815 | 46 | 123 | 0.0 | 0.0 | 0.00 | 0.00 | 0.00 | 99 | 1035.4 |
| 20260502123312 | 45 | 105 | 0.0 | 0.0 | 0.00 | 0.00 | 0.00 | 99 | 1035.6 |
| 20260502122809 | 45 | 86 | 0.0 | 0.0 | 0.00 | 0.00 | 0.00 | 99 | 1035.6 |
| 20260502122306 | 45 | 44 | 0.0 | 0.0 | 0.00 | 0.00 | 0.00 | 99 | 1035.4 |
| 20260502121803 | 46 | 30 | 0.0 | 0.0 | 0.00 | 0.00 | 0.00 | 99 | 1035.3 |
| 20260502121300 | 46 | 64 | 0.0 | 0.0 | 0.00 | 0.00 | 0.00 | 99 | 1035.5 |
| 20260502120757 | 46 | 62 | 0.0 | 0.0 | 0.00 | 0.00 | 0.00 | 99 | 1035.2 |
| 20260502120253 | 46 | 58 | 0.0 | 0.0 | 0.00 | 0.00 | 0.00 | 99 | 1035.3 |
| 20260502115751 | 46 | 70 | 0.0 | 0.0 | 0.00 | 0.00 | 0.00 | 99 | 1035.3 |
| 20260502115248 | 46 | 8 | 0.0 | 0.0 | 0.00 | 0.00 | 0.00 | 99 | 1035.1 |
| 20260502114744 | 46 | 4 | 0.0 | 0.0 | 0.00 | 0.00 | 0.00 | 99 | 1035.0 |
| 20260502114241 | 46 | 5 | 0.0 | 0.0 | 0.00 | 0.00 | 0.00 | 99 | 1035.4 |
| 20260502113738 | 47 | 4 | 0.0 | 0.0 | 0.00 | 0.00 | 0.00 | 99 | 1035.3 |
| 20260502113236 | 46 | 5 | 0.0 | 0.0 | 0.00 | 0.00 | 0.00 | 99 | 1035.3 |
| 20260502112734 | 47 | 4 | 0.0 | 0.0 | 0.00 | 0.00 | 0.00 | 99 | 1035.1 |
| 20260502112231 | 47 | 4 | 0.0 | 0.0 | 0.00 | 0.00 | 0.00 | 99 | 1035.2 |
| 20260502111728 | 46 | 4 | 0.0 | 0.0 | 0.00 | 0.00 | 0.00 | 99 | 1035.2 |
| 20260502111226 | 46 | 4 | 0.0 | 0.0 | 0.00 | 0.00 | 0.00 | 99 | 1035.1 |
| 20260502110723 | 47 | 4 | 0.0 | 0.0 | 0.00 | 0.00 | 0.00 | 99 | 1035.1 |
| 20260502110221 | 48 | 4 | 0.0 | 0.0 | 0.00 | 0.00 | 0.00 | 99 | 1035.0 |
| 20260502105719 | 48 | 4 | 0.0 | 0.0 | 0.00 | 0.00 | 0.00 | 98 | 1035.0 |
| 20260502105215 | 48 | 4 | 0.0 | 0.0 | 0.00 | 0.00 | 0.00 | 98 | 1035.1 |
| 20260502104712 | 48 | 4 | 0.0 | 0.0 | 0.00 | 0.00 | 0.00 | 98 | 1035.0 |
| 20260502104210 | 48 | 4 | 0.0 | 0.0 | 0.00 | 0.00 | 0.00 | 98 | 1035.1 |
| 20260502103707 | 48 | 4 | 0.0 | 0.0 | 0.00 | 0.00 | 0.00 | 98 | 1034.9 |
| 20260502103205 | 48 | 4 | 0.0 | 0.0 | 0.00 | 0.00 | 0.00 | 98 | 1035.0 |
| 20260502102701 | 48 | 4 | 0.0 | 0.0 | 0.00 | 0.00 | 0.00 | 98 | 1034.9 |
| 20260502102158 | 49 | 4 | 0.0 | 0.0 | 0.00 | 0.00 | 0.00 | 97 | 1035.1 |
| 20260502101656 | 49 | 4 | 0.0 | 0.0 | 0.00 | 0.00 | 0.00 | 97 | 1034.9 |
| 20260502101154 | 49 | 19 | 0.0 | 0.0 | 0.00 | 0.00 | 0.00 | 97 | 1035.0 |
| 20260502100652 | 50 | 19 | 0.0 | 0.0 | 0.00 | 0.00 | 0.00 | 97 | 1035.0 |
| 20260502100150 | 50 | 19 | 0.0 | 0.0 | 0.00 | 0.00 | 0.00 | 97 | 1035.0 |
| 20260502091124 | 51 | 19 | 0.0 | 0.0 | 0.00 | 0.00 | 0.00 | 95 | 1035.0 |
| 20260502090621 | 51 | 19 | 0.0 | 0.0 | 0.00 | 0.00 | 0.00 | 94 | 1034.8 |
| 20260502090119 | 52 | 19 | 0.0 | 0.0 | 0.00 | 0.00 | 0.00 | 94 | 1035.0 |
| 20260502071516 | 55 | 18 | 0.0 | 0.0 | 0.00 | 0.00 | 0.00 | 87 | 1034.5 |
| 20260502071014 | 55 | 18 | 0.0 | 0.9 | 0.00 | 0.00 | 0.00 | 87 | 1034.3 |
| 20260502070511 | 55 | 18 | 0.0 | 0.9 | 0.00 | 0.00 | 0.00 | 87 | 1034.5 |
| 20260502070010 | 56 | 25 | 0.9 | 1.7 | 0.00 | 0.00 | 0.00 | 86 | 1034.5 |
| 20260502065508 | 56 | 55 | 0.0 | 0.0 | 0.00 | 0.00 | 0.00 | 85 | 1034.4 |
| 20260502065006 | 56 | 56 | 0.0 | 0.9 | 0.00 | 0.00 | 0.00 | 84 | 1034.5 |
| 20260502064504 | 56 | 56 | 0.0 | 0.0 | 0.00 | 0.00 | 0.00 | 84 | 1034.5 |
| 20260502064000 | 56 | 57 | 0.0 | 0.0 | 0.00 | 0.00 | 0.00 | 84 | 1034.4 |
| 20260502063459 | 57 | 56 | 0.0 | 0.9 | 0.00 | 0.00 | 0.00 | 84 | 1034.3 |
| 20260502062955 | 57 | 22 | 0.0 | 0.9 | 0.00 | 0.00 | 0.00 | 83 | 1034.4 |
| 20260502062452 | 57 | 178 | 0.9 | 0.9 | 0.00 | 0.00 | 0.00 | 83 | 1034.2 |
| 20260502061951 | 57 | 177 | 0.9 | 0.9 | 0.00 | 0.00 | 0.00 | 82 | 1034.2 |
| 20260502061449 | 58 | 178 | 0.0 | 0.0 | 0.00 | 0.00 | 0.00 | 81 | 1033.9 |
| 20260502060944 | 59 | 187 | 0.0 | 0.9 | 0.00 | 0.00 | 0.00 | 80 | 1034.1 |
| 20260502060440 | 59 | 192 | 0.9 | 1.7 | 0.00 | 0.00 | 0.00 | 81 | 1034.2 |
| 20260502055937 | 59 | 226 | 0.9 | 1.7 | 0.00 | 0.00 | 0.00 | 79 | 1034.1 |
| 20260502055435 | 60 | 160 | 0.0 | 0.9 | 0.00 | 0.00 | 0.00 | 76 | 1034.0 |
| 20260502054929 | 62 | 175 | 3.5 | 7.0 | 0.00 | 0.00 | 0.00 | 70 | 1034.2 |
| 20260502054426 | 62 | 192 | 0.0 | 1.7 | 0.00 | 0.00 | 0.00 | 70 | 1034.2 |
| 20260502053924 | 62 | 197 | 3.5 | 6.1 | 0.00 | 0.00 | 0.00 | 68 | 1034.1 |
| 20260502053421 | 62 | 167 | 2.6 | 6.1 | 0.00 | 0.00 | 0.00 | 69 | 1034.1 |
| 20260502052918 | 62 | 171 | 3.5 | 7.0 | 0.00 | 0.00 | 0.00 | 69 | 1034.2 |
| 20260502052416 | 60 | 164 | 3.5 | 6.1 | 0.00 | 0.00 | 0.00 | 73 | 1034.2 |
| 20260502051914 | 60 | 185 | 1.7 | 3.5 | 0.00 | 0.00 | 0.00 | 80 | 1034.2 |
| 20260502051412 | 58 | 161 | 1.7 | 5.2 | 0.00 | 0.00 | 0.00 | 82 | 1034.2 |
| 20260502050909 | 57 | 358 | 0.0 | 0.9 | 0.00 | 0.00 | 0.00 | 85 | 1034.2 |
| 20260502050405 | 57 | 358 | 0.0 | 0.0 | 0.00 | 0.00 | 0.00 | 84 | 1034.2 |
| 20260502045903 | 58 | 358 | 0.0 | 0.0 | 0.00 | 0.00 | 0.00 | 83 | 1034.0 |
| 20260502045359 | 58 | 358 | 0.0 | 0.9 | 0.00 | 0.00 | 0.00 | 83 | 1034.0 |
| 20260502044856 | 58 | 358 | 0.0 | 0.0 | 0.00 | 0.00 | 0.00 | 83 | 1033.4 |
| 20260502044351 | 58 | 357 | 0.0 | 0.0 | 0.00 | 0.00 | 0.00 | 83 | 1033.8 |
| 20260502043843 | 58 | 358 | 0.0 | 0.0 | 0.00 | 0.00 | 0.00 | 82 | 1033.5 |
| 20260502043341 | 58 | 358 | 0.9 | 0.9 | 0.00 | 0.00 | 0.00 | 82 | 1033.9 |
| 20260502042840 | 59 | 358 | 0.0 | 0.0 | 0.00 | 0.00 | 0.00 | 81 | 1033.5 |
| 20260502042338 | 59 | 358 | 0.0 | 0.0 | 0.00 | 0.00 | 0.00 | 79 | 1033.5 |
| 20260502041835 | 59 | 357 | 0.0 | 0.0 | 0.00 | 0.00 | 0.00 | 79 | 1033.8 |
| 20260502041332 | 60 | 357 | 0.0 | 0.0 | 0.00 | 0.00 | 0.00 | 78 | 1033.7 |
| 20260502040830 | 60 | 357 | 0.0 | 0.9 | 0.00 | 0.00 | 0.00 | 77 | 1033.3 |
| 20260502040326 | 61 | 357 | 1.7 | 1.7 | 0.00 | 0.00 | 0.00 | 77 | 1033.3 |
| 20260502035822 | 62 | 358 | 0.0 | 0.0 | 0.00 | 0.00 | 0.00 | 74 | 1033.2 |
| 20260502035319 | 62 | 358 | 0.0 | 0.0 | 0.00 | 0.00 | 0.00 | 74 | 1033.3 |
| 20260502034817 | 62 | 358 | 0.0 | 0.9 | 0.00 | 0.00 | 0.00 | 72 | 1033.2 |
| 20260502034315 | 63 | 357 | 0.9 | 1.7 | 0.00 | 0.00 | 0.00 | 71 | 1033.1 |
| 20260502033813 | 63 | 358 | 0.9 | 0.9 | 0.00 | 0.00 | 0.00 | 70 | 1033.1 |
| 20260502033310 | 64 | 358 | 0.9 | 0.9 | 0.00 | 0.00 | 0.00 | 68 | 1033.0 |
| 20260502032807 | 64 | 358 | 0.9 | 0.9 | 0.00 | 0.00 | 0.00 | 68 | 1032.8 |
| 20260502032305 | 65 | 358 | 0.9 | 1.7 | 0.00 | 0.00 | 0.00 | 66 | 1033.0 |
| 20260502031801 | 65 | 340 | 0.0 | 0.9 | 0.00 | 0.00 | 0.00 | 66 | 1032.9 |
| 20260502031259 | 66 | 340 | 0.0 | 0.9 | 0.00 | 0.00 | 0.00 | 64 | 1032.9 |
| 20260502030757 | 67 | 346 | 1.7 | 2.6 | 0.00 | 0.00 | 0.00 | 60 | 1032.9 |
| 20260502030254 | 68 | 352 | 4.3 | 5.2 | 0.00 | 0.00 | 0.00 | 59 | 1033.0 |
| 20260502025752 | 68 | 0 | 2.6 | 6.1 | 0.00 | 0.00 | 0.00 | 59 | 1032.9 |
| 20260502025250 | 68 | 346 | 2.6 | 5.2 | 0.00 | 0.00 | 0.00 | 59 | 1032.8 |
| 20260502024747 | 68 | 29 | 3.5 | 5.2 | 0.00 | 0.00 | 0.00 | 58 | 1032.7 |
| 20260502024245 | 68 | 348 | 1.7 | 2.6 | 0.00 | 0.00 | 0.00 | 59 | 1032.5 |
| 20260502023743 | 69 | 322 | 6.1 | 7.8 | 0.00 | 0.00 | 0.00 | 59 | 1032.7 |
| 20260502023240 | 69 | 356 | 3.5 | 6.1 | 0.00 | 0.00 | 0.00 | 61 | 1032.6 |
| 20260502022738 | 69 | 39 | 1.7 | 5.2 | 0.00 | 0.00 | 0.00 | 61 | 1032.6 |
| 20260502022233 | 69 | 4 | 3.5 | 7.0 | 0.00 | 0.00 | 0.00 | 61 | 1032.7 |
| 20260502021731 | 69 | 18 | 5.2 | 6.1 | 0.00 | 0.00 | 0.00 | 60 | 1032.6 |
| 20260502021228 | 70 | 7 | 3.5 | 8.7 | 0.00 | 0.00 | 0.00 | 60 | 1032.5 |
| 20260502020725 | 70 | 348 | 4.3 | 7.0 | 0.00 | 0.00 | 0.00 | 60 | 1032.6 |
| 20260502020222 | 70 | 351 | 3.5 | 5.2 | 0.00 | 0.00 | 0.00 | 60 | 1032.6 |
| 20260502015720 | 71 | 17 | 3.5 | 5.2 | 0.00 | 0.00 | 0.00 | 59 | 1032.6 |
| 20260502015216 | 71 | 358 | 3.5 | 7.0 | 0.00 | 0.00 | 0.00 | 59 | 1032.6 |
| 20260502014714 | 72 | 353 | 4.3 | 5.2 | 0.00 | 0.00 | 0.00 | 58 | 1032.6 |
| 20260502014211 | 73 | 344 | 4.3 | 7.0 | 0.00 | 0.00 | 0.00 | 56 | 1032.3 |
| 20260502013707 | 73 | 9 | 4.3 | 6.1 | 0.00 | 0.00 | 0.00 | 54 | 1032.4 |
| 20260502013202 | 74 | 336 | 4.3 | 6.1 | 0.00 | 0.00 | 0.00 | 53 | 1032.6 |
| 20260502012700 | 74 | 355 | 3.5 | 6.1 | 0.00 | 0.00 | 0.00 | 50 | 1032.7 |
| 20260502012158 | 75 | 9 | 2.6 | 3.5 | 0.00 | 0.00 | 0.00 | 48 | 1032.6 |
| 20260502011654 | 75 | 4 | 1.7 | 6.1 | 0.00 | 0.00 | 0.00 | 49 | 1032.5 |
| 20260502011150 | 75 | 357 | 0.0 | 3.5 | 0.00 | 0.00 | 0.00 | 46 | 1032.5 |
| 20260502010648 | 75 | 32 | 0.9 | 1.7 | 0.00 | 0.00 | 0.00 | 50 | 1032.6 |
| 20260502010144 | 75 | 259 | 0.9 | 2.6 | 0.00 | 0.00 | 0.00 | 49 | 1032.3 |
| 20260502005641 | 75 | 341 | 3.5 | 6.1 | 0.00 | 0.00 | 0.00 | 46 | 1032.6 |
| 20260502005139 | 75 | 350 | 2.6 | 5.2 | 0.00 | 0.00 | 0.00 | 50 | 1032.6 |
| 20260502004635 | 75 | 6 | 3.5 | 3.5 | 0.00 | 0.00 | 0.00 | 48 | 1032.5 |
| 20260502004132 | 75 | 25 | 3.5 | 5.2 | 0.00 | 0.00 | 0.00 | 48 | 1032.4 |
| 20260502003630 | 76 | 333 | 2.6 | 3.5 | 0.00 | 0.00 | 0.00 | 48 | 1032.6 |
| 20260502003126 | 76 | 37 | 0.9 | 1.7 | 0.00 | 0.00 | 0.00 | 46 | 1032.6 |
| 20260502002622 | 76 | 222 | 3.5 | 5.2 | 0.00 | 0.00 | 0.00 | 47 | 1032.6 |
| 20260502002120 | 77 | 41 | 0.9 | 2.6 | 0.00 | 0.00 | 0.00 | 46 | 1032.7 |
| 20260502001618 | 76 | 90 | 0.9 | 1.7 | 0.00 | 0.00 | 0.00 | 47 | 1032.6 |
| 20260502001115 | 77 | 290 | 1.7 | 2.6 | 0.00 | 0.00 | 0.00 | 44 | 1032.5 |
| 20260502000613 | 78 | 204 | 0.0 | 3.5 | 0.00 | 0.00 | 0.00 | 44 | 1032.7 |
| 20260502000110 | 77 | 6 | 0.9 | 1.7 | 0.00 | 0.00 | 0.00 | 44 | 1032.6 |
| 20260501235606 | 77 | 330 | 1.7 | 6.1 | 0.00 | 0.00 | 0.00 | 46 | 1032.6 |
| 20260501235102 | 78 | 99 | 0.0 | 1.7 | 0.00 | 0.00 | 0.00 | 45 | 1032.7 |
| 20260501234557 | 77 | 41 | 0.0 | 0.9 | 0.00 | 0.00 | 0.00 | 45 | 1032.8 |
| 20260501234055 | 77 | 321 | 1.7 | 2.6 | 0.00 | 0.00 | 0.00 | 43 | 1032.9 |
| 20260501233553 | 77 | 45 | 0.9 | 3.5 | 0.00 | 0.00 | 0.00 | 44 | 1032.8 |
| 20260501233050 | 77 | 358 | 2.6 | 6.1 | 0.00 | 0.00 | 0.00 | 42 | 1032.9 |
| 20260501232546 | 77 | 145 | 0.0 | 1.7 | 0.00 | 0.00 | 0.00 | 44 | 1032.9 |
| 20260501232044 | 77 | 347 | 3.5 | 5.2 | 0.00 | 0.00 | 0.00 | 41 | 1033.0 |
| 20260501231541 | 76 | 20 | 1.7 | 7.0 | 0.00 | 0.00 | 0.00 | 42 | 1033.0 |
| 20260501231039 | 78 | 13 | 2.6 | 3.5 | 0.00 | 0.00 | 0.00 | 40 | 1032.9 |
| 20260501230538 | 77 | 116 | 0.9 | 1.7 | 0.00 | 0.00 | 0.00 | 42 | 1033.1 |
| 20260501230035 | 78 | 334 | 2.6 | 5.2 | 0.00 | 0.00 | 0.00 | 43 | 1033.0 |
| 20260501225533 | 77 | 24 | 3.5 | 6.1 | 0.00 | 0.00 | 0.00 | 41 | 1033.1 |
| 20260501225029 | 77 | 351 | 1.7 | 3.5 | 0.00 | 0.00 | 0.00 | 42 | 1033.3 |
| 20260501224526 | 77 | 351 | 0.9 | 2.6 | 0.00 | 0.00 | 0.00 | 40 | 1033.1 |
| 20260501224023 | 76 | 291 | 1.7 | 3.5 | 0.00 | 0.00 | 0.00 | 41 | 1033.3 |
| 20260501223520 | 78 | 11 | 6.1 | 7.0 | 0.00 | 0.00 | 0.00 | 40 | 1033.4 |
| 20260501223016 | 76 | 263 | 0.9 | 6.1 | 0.00 | 0.00 | 0.00 | 42 | 1033.7 |
| 20260501222512 | 76 | 11 | 1.7 | 6.1 | 0.00 | 0.00 | 0.00 | 43 | 1033.8 |
| 20260501222009 | 77 | 338 | 2.6 | 5.2 | 0.00 | 0.00 | 0.00 | 40 | 1033.8 |
| 20260501221505 | 77 | 1 | 2.6 | 7.0 | 0.00 | 0.00 | 0.00 | 41 | 1033.7 |
| 20260501221004 | 75 | 339 | 2.6 | 6.1 | 0.00 | 0.00 | 0.00 | 42 | 1033.7 |
| 20260501220501 | 76 | 5 | 3.5 | 7.0 | 0.00 | 0.00 | 0.00 | 42 | 1033.8 |
| 20260501215957 | 75 | 22 | 1.7 | 5.2 | 0.00 | 0.00 | 0.00 | 43 | 1033.8 |
| 20260501215454 | 76 | 328 | 0.9 | 3.5 | 0.00 | 0.00 | 0.00 | 43 | 1034.0 |
| 20260501214949 | 74 | 27 | 1.7 | 5.2 | 0.00 | 0.00 | 0.00 | 44 | 1034.0 |
| 20260501214445 | 75 | 8 | 1.7 | 7.0 | 0.00 | 0.00 | 0.00 | 43 | 1034.1 |
| 20260501213940 | 74 | 16 | 0.9 | 7.0 | 0.00 | 0.00 | 0.00 | 45 | 1034.1 |
| 20260501213438 | 75 | 28 | 2.6 | 5.2 | 0.00 | 0.00 | 0.00 | 45 | 1034.0 |
| 20260501212933 | 75 | 331 | 1.7 | 5.2 | 0.00 | 0.00 | 0.00 | 45 | 1034.2 |
| 20260501212430 | 75 | 43 | 0.9 | 7.0 | 0.00 | 0.00 | 0.00 | 49 | 1034.0 |
| 20260501211927 | 76 | 301 | 1.7 | 5.2 | 0.00 | 0.00 | 0.00 | 45 | 1034.1 |
| 20260501211424 | 74 | 56 | 0.9 | 2.6 | 0.00 | 0.00 | 0.00 | 44 | 1033.9 |
| 20260501210922 | 75 | 3 | 6.1 | 7.0 | 0.00 | 0.00 | 0.00 | 43 | 1034.0 |